Regional Weather Roundup
Issued by NWS

Home | Current Version | Previous Version | Text Only | Print | Product List | Glossary Off
Versions: 1 2 3 4 5 6 7 8 9 10 11 12 13 14 15 16 17 18 19 20 21 22 23 24 25 26 27 28 29 30 31 32 33 34 35 36 37 38 39 40 41 42 43 44 45 46 47 48 49 50

000
ASUS45 KCYS 250210
RWRWY

WYOMING REGIONAL WEATHER ROUNDUP
NATIONAL WEATHER SERVICE CHEYENNE WY
800 PM MDT TUE MAY 24 2016

NOTE:  "FAIR" INDICATES FEW OR NO CLOUDS BELOW 12,000 FEET
WITH NO SIGNIFICANT WEATHER AND/OR OBSTRUCTIONS TO VISIBILITY.

WYZ001-250300-
YELLOWSTONE NATIONAL PARK

CITY           SKY/WX    TMP DP  RH WIND       PRES   REMARKS
LK YELLOWSTONE   N/A     37  34  89 CALM      29.99S
W YELLOWSTONE  NOT AVBL

$$
WYZ002>013-054>058-071-098>099-250300-
NORTHERN WYOMING

CITY           SKY/WX    TMP DP  RH WIND       PRES   REMARKS
JACKSON        NOT AVBL
CODY           CLOUDY    48  39  71 NW5       29.91R
GREYBULL       CLOUDY    60  43  53 W16       29.85R
WORLAND        FAIR      50  44  80 N9        29.85F
SHERIDAN       CLOUDY    56  44  64 NW25G37   29.82R
BUFFALO        CLOUDY    57  41  55 SW7       29.87R
GILLETTE       MOCLDY    54  50  86 E9        29.82F
HULETT         MOCLDY    54  50  87 S5        29.87S
NEWCASTLE      FAIR      61  41  48 E10G22    29.81S

$$
WYZ014>020-022>026-101>103-250300-
CENTRAL WYOMING

CITY           SKY/WX    TMP DP  RH WIND       PRES   REMARKS
BIG PINEY      MOCLDY    44  39  82 NE12      29.98S
PINEDALE       FAIR      39  37  93 CALM      30.00S
DUBOIS         CLOUDY    43  32  65 W14G20    29.94S
LANDER         FAIR      51  39  63 NW8       29.88R
RIVERTON       FAIR      52  39  61 NW23G31   29.88R
CASPER         FAIR      55  38  52 NW28G38   29.84R
DOUGLAS        FAIR      57  47  69 SE7       29.80R

$$
WYZ021-027>030-104>119-250300-
SOUTHERN WYOMING

CITY           SKY/WX    TMP DP  RH WIND       PRES   REMARKS
EVANSTON       CLOUDY    41  35  79 SW23G31   30.00F
KEMMERER         N/A     45  34  65 S3        30.01R
FORT BRIDGER   LGT RAIN  41  41 100 W12G25    30.06R
ROCK SPRINGS   MOCLDY    50  33  52 W21G29    29.96R
DIXON          MOCLDY    58  27  30 W12G20    29.95R
RAWLINS        CLOUDY    53  32  44 NW13      29.92R
SARATOGA       FAIR      54  32  43 W13G29    29.94R
LARAMIE        MOCLDY    54  41  61 SE23G36   29.90R
CHEYENNE       MOCLDY    55  43  63 S9        29.88R
TORRINGTON     FAIR      60  43  53 E8        29.81R
PINE BLUFFS    FAIR      52  46  82 CALM      29.86S

$$



USA.gov is the U.S. government's official web portal to all federal, state and local government web resources and services.